Toronto, Ontario

5:42 PM EST on January 23, 2018 (GMT -0500)
Toronto

Weather History for CYTZ - June, 2013

Change the Weather History Date:

Friday, June 14, 2013

  Actual Average Record
Temperature  
Mean Temperature 66 °F -  
Max Temperature 75 °F 74 °F 82 °F (2005)
Min Temperature 57 °F 58 °F 49 °F (2016)
Cooling Degree Days 1    
Growing Degree Days 16 (Base 50)    
Moisture  
Dew Point 55 °F    
Average Humidity 69    
Maximum Humidity 94    
Minimum Humidity 35    
Precipitation  
Precipitation 0.00 in 0.09 in - ()
Sea Level Pressure  
Sea Level Pressure 29.91 in    
Wind  
Wind Speed 7 mph ()    
Max Wind Speed 15 mph    
Max Gust Speed 24 mph    
Visibility 8.6 miles    
Events      
Averages and records for this station are not official NWS values.
T = Trace of Precipitation, MM = Missing Value Source: Averaged Metar Reports

Daily Weather History Graph

Daily Weather History Graph

Search for Another Location

Airport or City:

Trip Planner

Search our weather history database for the weather conditions in past years. The results will help you decide how hot, cold, wet, or windy it might be!

Date:

Astronomy

Jun. 14, 2013 Rise Set
Actual Time 5:35 AM EDT 9:00 PM EDT
Civil Twilight 4:59 AM EDT 9:36 PM EDT
Nautical Twilight 4:12 AM EDT 10:23 PM EDT
Astronomical Twilight 3:13 AM EDT 11:22 PM EDT
Moon 11:18 AM EDT (6/14) No Moon Set
Length of Visible Light 16h 36m
Length of Day
15h 25m
Waxing Crescent, 30% of the Moon is Illuminated
Jun 14
Waxing Crescent
Jun 16
First Quarter
Jun 23
Full
Jun 30
Last Quarter
Jul 8
New

Hourly Weather History & Observations

Time (EDT) Temp. Dew Point Humidity Pressure Visibility Wind Dir Wind Speed Gust Speed Precip Events Conditions
12:00 AM 59.0 °F 57.2 °F 94% 29.81 in 9.0 mi WNW 6.9 mph - N/A   Scattered Clouds
1:00 AM 59.0 °F 57.2 °F 94% 29.81 in 7.0 mi NNW 3.5 mph - N/A   Mostly Cloudy
1:22 AM 59.0 °F 57.2 °F 94% 29.82 in 5.0 mi ENE 5.8 mph - N/A   Mostly Cloudy
2:00 AM 60 °F 58 °F 93% 29.82 in 5 mi NNW 3.5 mph - -   Mist
2:00 AM 60.8 °F 59.0 °F 94% 29.82 in 5.0 mi NNW 4.6 mph - N/A   Partly Cloudy
2:01 AM 60.8 °F 59.0 °F 94% 29.82 in 6.0 mi NW 4.6 mph - N/A   Partly Cloudy
3:00 AM 60.8 °F 57.2 °F 88% 29.82 in 9.0 mi NW 8.1 mph - N/A   Scattered Clouds
4:00 AM 60.8 °F 57.2 °F 88% 29.82 in 9.0 mi NNW 15.0 mph - N/A   Clear
5:00 AM 60.8 °F 57.2 °F 88% 29.85 in 9.0 mi NNW 13.8 mph - N/A   Clear
6:00 AM 60.8 °F 57.2 °F 88% 29.86 in 9.0 mi NNW 12.7 mph - N/A   Scattered Clouds
7:00 AM 62.6 °F 57.2 °F 82% 29.87 in 9.0 mi NNW 13.8 mph - N/A   Clear
8:00 AM 62 °F 57 °F 78% 29.90 in 10 mi NNW 15.0 mph - -   Overcast
8:00 AM 62.6 °F 57.2 °F 82% 29.90 in 9.0 mi North 15.0 mph 24.2 mph N/A   Overcast
8:57 AM 62.6 °F 55.4 °F 77% 29.93 in 9.0 mi NNW 8.1 mph - N/A   Overcast
9:00 AM 62.6 °F 55.4 °F 77% 29.93 in 9.0 mi North 11.5 mph - N/A   Overcast
10:00 AM 64.4 °F 55.4 °F 73% 29.95 in 9.0 mi NW 6.9 mph - N/A   Overcast
10:35 AM 64.4 °F 55.4 °F 73% 29.95 in 9.0 mi NNW 5.8 mph - N/A   Scattered Clouds
11:00 AM 66.2 °F 55.4 °F 68% 29.96 in 9.0 mi NW 9.2 mph - N/A   Clear
12:00 PM 68.0 °F 57.2 °F 68% 29.95 in 9.0 mi WNW 11.5 mph - N/A   Clear
1:00 PM 71.6 °F 55.4 °F 57% 29.95 in 9.0 mi NNE 5.8 mph - N/A   Clear
2:00 PM 73 °F 56 °F 46% 29.95 in 10 mi North 6.9 mph - -  
2:00 PM 73.4 °F 57.2 °F 57% 29.95 in 9.0 mi NNE 5.8 mph - N/A   Scattered Clouds
3:00 PM 73.4 °F 55.4 °F 53% 29.96 in 9.0 mi SE 3.5 mph - N/A   Mostly Cloudy
4:00 PM 73.4 °F 59.0 °F 61% 29.95 in 9.0 mi SSW 6.9 mph - N/A   Mostly Cloudy
5:00 PM 75.2 °F 53.6 °F 47% 29.95 in 9.0 mi WNW 10.4 mph - N/A   Partly Cloudy
6:00 PM 73.4 °F 51.8 °F 47% 29.94 in 9.0 mi NNW 9.2 mph - N/A   Clear
7:00 PM 73.4 °F 50.0 °F 44% 29.95 in 9.0 mi NW 10.4 mph - N/A   Clear
8:00 PM 70 °F 49 °F 35% 29.96 in 10 mi NNW 9.2 mph - -  
8:00 PM 69.8 °F 48.2 °F 46% 29.96 in 9.0 mi NW 6.9 mph - N/A   Clear
9:00 PM 66.2 °F 44.6 °F 46% 29.97 in 9.0 mi NNW 10.4 mph 21.9 mph N/A   Clear
10:00 PM 64.4 °F 42.8 °F 45% 29.98 in 9.0 mi NW 13.8 mph - N/A   Clear
11:00 PM 64.4 °F 41.0 °F 42% 29.99 in 9.0 mi NNW 10.4 mph - N/A   Clear